Location: Gälforsberget
(66.6500°N, 22.4167°E)
Time: 10:38:31
(UTC+00:00)

Cosmos 1862 - Pass Details

Date: 11 April 2026
Orbit: 464 x 478 km, 82.5° (Epoch: 19 May)

Event Time Altitude Azimuth Distance (km) Brightness Sun altitude
Rises 21:43:24 0° 340° (NNW) 2,560 8.6 -14.3°
Reaches altitude 10° 21:45:37 10° 332° (NNW) 1,674 7.0 -14.3°
Maximum altitude 21:48:59 36° 265° (W) 782 4.1 -14.4°
Enters shadow 21:50:57 20° 210° (SSW) 1,161 4.5 -14.4°
